Starlink 33825

operational
NORAD ID: 63505 Int'l Des: 2025-071 Owner: SPXS Country: US Constellation: starlink
LEOCIRCULAR

Über Starlink 33825

Beschreibung wird geladen...

Live-Position

3D-Globus wird geladen...

Nächste Überflüge

Höhenverlauf

Altitude vs Time

uPlot chart will show altitude changes over time

Zweizeiliger Elementsatz

1 63505U 25071N 25257.34148983 .00003896 00000-0 14364-3 0 9992
2 63505 53.1580 238.7958 0001060 96.9527 263.1595 15.30188284 25772
Epoch: 14. Sept. 2025 • Age: 26 hours

Aktueller Status

Höhe 476.5 km
Geschwindigkeit 7.63 km/s
Subsatellitenpunkt 30.70°N, 115.37°W
Startdatum 7. Apr. 2025
Alter 0.4 years
Typ internet

Technische Details

Klassifizierung Payload
Masse 575.00 kg
Trockenmasse 530.00 kg
Gesamtmasse 575.00 kg
Länge 0.30 m
Durchmesser 4.10 m
Spannweite 29.00 m
Form Box + pan
Hersteller SPXS
Bus-Typ Starlink V2MO
Phasenstatus In Orbit
Besitzer/Staat SPXS/US

Große Konstellationen

Loading constellations...